Вернуться в каталог

USA 450

АктивенВоенныеVLEO
NORAD 62349·PAYLOAD·🇺🇸 United States

Запущен Dec 17, 2024 с Vandenberg Space Force Base

Loading…

Ближайшие Пролёты (ближайшие 24 часа)

TLE

УстаревшееSource: Mike McCants

Эпоха: Aug 21, 2026, 20:09 UTC

1 62349U 24243K   26233.83999346 0.00000000  00000-0  00000-0 0    09
2 62349  70.0202 132.1257 0003000 223.1167 136.8832 14.96713548    02

Отслеживайте USA 450 в реальном времени с AllMySat

Download on the App Store